STARLINK-1413, 45689

Orbit data source: Space-Track

STARLINK-1413, 45689 is a payload satellite owned by SpaceX/Seattle (US) in LEO that was launched on Thu, 04 Jun 2020 UTC via an FALCON 9 launch vehicle from the Air Force Eastern Test Range (AFETR). Payload-class satellites include a variety of spacecraft equipped with specific instruments for various scientific and technological missions. These include communications satellites like Starlink; space stations such as the ISS; scientific satellites like the Hubble; Earth observation satellites from companies like Planet Labs, Umbra, and HawkEye 360; GPS; miniature CubeSats for education and research; and military/defense satellites.

Loading next visibility...
Identifier
45689, 2020-035AJ
Orbit
LEO
Last TLE update
6 hours ago
Origin
Manufacturer
SpaceX/Seattle
Mission
Operational Commercial Communications
Bus & Motor
STARLINK, Unknown motor
Mass
260 kg wet, ~248 kg dry
Launch date (UTC)
2020-06-04 (5 years ago)
Launch vehicle
FALCON 9
Launch site
Air Force Eastern Test Range (AFETR)
Object type
Payload
Rocket body
Debris
Shape & HBR
Box + 1 Pan, 8.86 m
Radar Cross Section
13.562 m², Large (>1 m²)

Expand to show TLE details & history

TLE from 6 hours ago
0 STARLINK-1413
1 45689U 20035AJ  25190.06160037 -.00000589  00000-0 -20632-4 0  9993
2 45689  53.0551  70.3036 0001509  95.4850 264.6311 15.06398381281747
Epoch: 2025-07-09T01:28Z
TLE epoch observation values (Epoch: 2025-07-09T01:28:42.271Z)
Latitude
-0.00006°
Longitude
120.87979°
Altitude
548.194 km
Speed
7.589 km/s
True Right ascension
04h 41m 12s
True Declination
0° 00' 00"
Sunlit
Object was in daylight at epoch
Visualization orbit readout
Latitude
-13.33108°
Longitude
109.49343°
Altitude
551.178 km
Speed
7.586 km/s
Apparent Right ascension
05h 34m 53s
Apparent Declination
-29° 12' 42"
Sunlit
Object is in daylight
Visualization observer readout
Local Sidereal Time
19:55:59
Azimuth
80.66° E
Elevation
-59.28°
Doppler factor
1
Orbital elements
Apogee altitude
548.532 km
Perigee altitude
546.442 km
Semi-major axis
6,925.624 km
Eccentricity
0.00015
Inclination
53.0551°
RAAN
70.3036°
Arg. of periapsis
95.485°
True anomaly
Unknown
Mean anomaly
264.6311°
Eccentric anomaly
Unknown
Mean motion
3.76578 °/min
Orbital period
95.6 mins
BSTAR
-0.000020632
Loading maneuver chart data...
Loading SW <> Apogee altitude chart data...

STARLINK-1413 Visibility forecast

Observer location: undefined°, undefined°

Span
Click to sort rows by Start time (UTC) header in descending order
Start Az.
Max El. time (UTC)
Max El. Az.
Max El.
End time (UTC)
End Az.
4 mins2025-07-09 17:33:26.187Z163.261° S2025-07-09 17:35:26.187Z128.747° SE17.942°2025-07-09 17:37:26.187Z93.48° ESE
6 mins2025-07-09 19:12:26.187Z250.834° W2025-07-09 19:14:26.187Z305.439° NW40.448°2025-07-09 19:18:26.187Z43.566° NE
4 mins2025-07-09 20:53:26.187Z317.483° NNW2025-07-09 20:54:26.187Z334.777° NNW16.526°2025-07-09 20:57:26.187Z23.679° NE
5 mins2025-07-10 00:14:26.187Z343.809° N2025-07-10 00:16:26.187Z26.368° NE23.832°2025-07-10 00:19:26.187Z80.34° E
6 mins2025-07-10 01:53:26.187Z298.714° NW2025-07-10 01:56:26.187Z204.444° SW40.246°2025-07-10 01:59:26.187Z146.749° SSE
|